Location: St. Louis
(38.6270°N, 90.1994°W)
Time: 01:21:26
(UTC-06:00)

Courier 1B Rocket - Pass Details

Date: 03 December 2021
Orbit: 920 x 1202 km, 28.2° (Epoch: 16 January)

Event Time Altitude Azimuth Distance (km) Brightness Sun altitude
Rises 20:39:08 0° 203° (SSW) 3,728 - -46.1°
Reaches altitude 10° 20:44:13 10° 171° (S) 2,709 - -47.1°
Maximum altitude 20:46:02 11° 155° (SSE) 2,599 - -47.4°
Drops below altitude 10° 20:47:50 10° 138° (SE) 2,668 - -47.8°
Sets 20:52:41 0° 105° (ESE) 3,572 - -48.7°
